This is the latest recevied weather packets stored in our database for station/object N8BAP. If no packets are shown the sender has not sent any weather packets the latest 10 day(s).
| Time | Temp. | Humidity | Pressure | Rain* | Wind** | Luminosity | Snow |
|---|---|---|---|---|---|---|---|
| 1788468920 | 33.89° C | 53% | 1020.2 hPa | 0 mm | - | 347 W/m² | - |
| 1788468615 | 33.89° C | 54% | 1020.2 hPa | 0 mm | - | 373 W/m² | - |
| 1788468311 | 33.33° C | 53% | 1020.5 hPa | 0 mm | - | 394 W/m² | - |
| 1788468006 | 33.89° C | 53% | 1020.5 hPa | 0 mm | - | 389 W/m² | - |
| 1788467701 | 33.89° C | 52% | 1020.3 hPa | 0 mm | - | 422 W/m² | - |
| 1788467400 | 33.89° C | 50% | 1020.5 hPa | 0 mm | - | 454 W/m² | - |
| 1788467097 | 34.44° C | 52% | 1020.7 hPa | 0 mm | - | 474 W/m² | - |
| 1788466791 | 34.44° C | 51% | 1020.6 hPa | 0 mm | - | 478 W/m² | - |
| 1788466487 | 33.89° C | 51% | 1020.8 hPa | 0 mm | - | 526 W/m² | - |
| 1788466185 | 33.33° C | 57% | 1020.8 hPa | 0 mm | - | 525 W/m² | - |
| 1788465880 | 33.89° C | 52% | 1020.9 hPa | 0 mm | - | 129 W/m² | - |
| 1788465575 | 34.44° C | 50% | 1021.2 hPa | 0 mm | - | 510 W/m² | - |
| 1788465271 | 33.89° C | 53% | 1021.1 hPa | 0 mm | - | 519 W/m² | - |
| 1788464966 | 33.33° C | 58% | 1021.1 hPa | 0 mm | - | 559 W/m² | - |
| 1788464662 | 33.89° C | 54% | 1021.2 hPa | 0 mm | - | 179 W/m² | - |
| 1788464357 | 34.44° C | 54% | 1021.1 hPa | 0 mm | - | 565 W/m² | - |
| 1788464054 | 34.44° C | 54% | 1021.3 hPa | 0 mm | - | 592 W/m² | - |
| 1788463748 | 33.89° C | 53% | 1021.5 hPa | 0 mm | - | 603 W/m² | - |
| 1788463445 | 33.89° C | 55% | 1021.5 hPa | 0 mm | - | 600 W/m² | - |
| 1788463141 | 33.89° C | 53% | 1021.7 hPa | 0 mm | - | 642 W/m² | - |
| 1788462836 | 34.44° C | 52% | 1021.8 hPa | 0 mm | - | 435 W/m² | - |
| 1788462536 | 33.89° C | 53% | 1021.9 hPa | 0 mm | - | 593 W/m² | - |
| 1788462230 | 33.89° C | 54% | 1021.6 hPa | 0 mm | - | 620 W/m² | - |
| 1788461929 | 33.89° C | 53% | 1022.1 hPa | 0 mm | - | 659 W/m² | - |
| 1788461624 | 33.89° C | 51% | 1021.7 hPa | 0 mm | - | 646 W/m² | - |
* Rain latest hour (hover to see other rain measurements)
** Current wind speed in m/s (hover to see current wind gust speed)